Regional Weather Roundup
Issued by NWS Bismarck, ND

Home | Current Version | Previous Version | Text Only | Print | Product List | Glossary On
Versions: 1 2 3 4 5 6 7 8 9 10 11 12 13 14 15 16 17 18 19 20 21 22 23 24 25 26 27 28 29 30 31 32 33 34 35 36 37 38 39 40 41 42 43 44 45 46 47 48 49 50
625
ASUS43 KBIS 220402
RWRBIS

NWR BROADCAST TEXT
NATIONAL WEATHER SERVICE BISMARCK ND
1000 PM CST TUE NOV 21 2017

NOTE: "FAIR" INDICATES FEW OR NO CLOUDS BELOW 12,000 FEET WITH NO
SIGNIFICANT WEATHER AND/OR OBSTRUCTIONS TO VISIBILITY.


CITY           SKY/WX    TMP DP  RH WIND       PRES   REMARKS
WILLISTON      CLOUDY    15   3  59 SE3       30.18F
MINOT          CLOUDY     8   1  73 SW5       30.24F WCI   0
MINOT AFB      CLOUDY     2  -2  81 S5        30.23F WCI  -7
BISMARCK       CLOUDY     8   4  83 E5        30.31F WCI   0
DICKINSON      CLOUDY    11   2  67 S6        30.16F WCI   1
GARRISON         N/A      7   2  80 CALM      30.24F
HETTINGER ARPT CLOUDY    14   4  64 CALM      30.21F
JAMESTOWN      CLOUDY    10   5  80 W6        30.30S WCI   0
CARRINGTON     FAIR      10   7  85 W8        30.31R WCI  -1
HAZEN          FAIR       3   0  85 CALM      30.26F
LINTON           N/A      1  -6  71 E7        30.32S WCI -11
MANDAN         FAIR       9   1  72 S5        30.27F WCI   0
OAKES            N/A      9   3  78 W6        30.34F WCI  -1
RUGBY          FAIR       5   1  85 W8        30.28S WCI  -8
STANLEY        CLOUDY     7   3  85 CALM      30.20F
TIOGA          CLOUDY    12   3  67 S6        30.18F WCI   3
WATFORD CITY   FAIR      12   3  67 SE8       30.18F WCI   1
$$

CITY           SKY/WX    TMP DP  RH WIND       PRES   REMARKS
GRAND FORKS    CLOUDY    14  10  84 W6        30.31R WCI   5
GRAND FORKS AF CLEAR     13   7  79 W3        30.31R
DEVILS LAKE    CLOUDY    10   5  80 W8        30.29R WCI  -2
FARGO          PTCLDY    14   8  77 W9        30.34F WCI   2
CANDO          FAIR       7   5  92 W8        30.30R WCI  -6
CAVALIER       FAIR      12   7  79 CALM      30.28F
GRAFTON        FAIR      14  10  85 W6        30.33R WCI   5
GWINNER          N/A      7   3  85 W5        30.33F WCI  -2
LANGDON        FAIR       9   7  92 W12       30.25R WCI  -6
ROLLA          FAIR       7   1  78 S5        30.22F WCI  -2
WALHALLA       FAIR      14  10  85 NW5       30.27F WCI   6
$$

CITY           SKY/WX    TMP DP  RH WIND       PRES   REMARKS
ABERDEEN       CLOUDY     6   3  87 CALM      30.36S
MOBRIDGE       CLOUDY    10   2  69 CALM      30.28F
BUFFALO          N/A     21   9  59 S8        30.11F WCI  11
RAPID CITY     CLOUDY    21  15  78 SE5       30.21F WCI  15
GLASGOW        CLOUDY    19   6  57 E13       30.07F WCI   6
SIDNEY         CLOUDY    15   6  67 SW5       30.17F WCI   8
WOLF POINT     CLOUDY    17   4  56 NE5       30.14F WCI  10
GLENDIVE       CLOUDY    19  11  70 SW6       30.14F WCI  11
MILES CITY     CLOUDY    26  20  77 S6        30.12F WCI  19
BAKER          CLOUDY    22  17  81 SE8       30.15F WCI  12
$$

CITY           SKY/WX    TMP DP  RH WIND       PRES   REMARKS
BILLINGS       CLOUDY    43  33  68 SW16      30.10F
GREAT FALLS    CLOUDY    50  36  58 SW21G33   29.99F
$$





USA.gov is the U.S. government's official web portal to all federal, state and local government web resources and services.